Terminal Aerodrome Forecast
Issued by NWS

Home | Current Version | Previous Version | Text Only | Print | Product List | Glossary On
Versions: 1 2 3 4 5 6 7 8 9 10 11 12 13 14 15 16 17 18 19 20 21 22 23 24 25 26 27 28 29 30 31 32 33 34 35 36 37 38 39 40 41 42 43 44 45 46 47 48 49 50
000
FTUS45 KGJT 020537
TAFTEX
TAF
KTEX 020537Z 0206/0306 12003KT 2SM -SN BR BKN007 OVC012
      TEMPO 0212/0216 4SM -SN BR SCT007 OVC012
     FM021600 17015G25KT 4SM -SN BR SCT007 OVC015
      TEMPO 0221/0301 1 1/2SM -SN BR BKN007
     FM030100 24020G32KT 1/2SM SN FZFG VV003=

USA.gov is the U.S. government's official web portal to all federal, state and local government web resources and services.